User: anonymous   Login
Location: Unspecified
(0.0000°N, 0.0000°E)
Time: 16:32:08
(UTC+00:00)
Language:

NOAA 19 - Orbit

View from above orbital plane
View from above orbital plane
View from above satellite
View from above satellite

Ground track
Ground track

The orbit data is extracted from the following two-line orbital elements,

1 33591U 09005A   19346.86445945 +.00000033 +00000-0 +43146-4 0  9991
2 33591 099.1910 342.3764 0013133 240.2478 119.7387 14.12387177558655
Epoch (UTC): 12 December 2019 20:44:49
Eccentricity: 0.0013133
inclination: 99.1910°
perigee height: 842 km
apogee height: 861 km
right ascension of ascending node: 342.3764°
argument of perigee: 240.2478°
revolutions per day: 14.12387177
mean anomaly at epoch: 119.7387°
orbit number at epoch: 55865

The dashed part of the orbit path shows where the satellite is in the earth's shadow,  

DLR